This is the latest recevied weather packets stored in our database for station/object CE4JVU-10. If no packets are shown the sender has not sent any weather packets the latest 10 day(s).
| Time | Temp. | Humidity | Pressure | Rain* | Wind** | Luminosity | Snow |
|---|---|---|---|---|---|---|---|
| 1788268164 | 18.89° C | 58% | 986.4 hPa | - | - | - | - |
| 1788267264 | 18.33° C | 59% | 986.2 hPa | - | - | - | - |
| 1788266364 | 18.33° C | 60% | 986.2 hPa | - | - | - | - |
| 1788265464 | 18.33° C | 63% | 986.2 hPa | - | - | - | - |
| 1788264564 | 17.78° C | 65% | 986.2 hPa | - | - | - | - |
| 1788263664 | 17.78° C | 61% | 986.2 hPa | - | - | - | - |
| 1788262764 | 17.22° C | 59% | 986.2 hPa | - | - | - | - |
| 1788261864 | 17.22° C | 58% | 985.9 hPa | - | - | - | - |
| 1788260964 | 17.78° C | 59% | 985.9 hPa | - | - | - | - |
| 1788260063 | 17.78° C | 58% | 985.7 hPa | - | - | - | - |
| 1788259163 | 17.78° C | 58% | 985.8 hPa | - | - | - | - |
| 1788258263 | 17.78° C | 58% | 985.7 hPa | - | - | - | - |
| 1788257363 | 17.78° C | 59% | 985.7 hPa | - | - | - | - |
| 1788256463 | 18.33° C | 58% | 985.6 hPa | - | - | - | - |
| 1788255563 | 18.33° C | 58% | 985.5 hPa | - | - | - | - |
| 1788254663 | 18.33° C | 58% | 985.5 hPa | - | - | - | - |
| 1788253763 | 18.33° C | 58% | 985.5 hPa | - | - | - | - |
| 1788252863 | 18.33° C | 57% | 985.5 hPa | - | - | - | - |
| 1788251962 | 18.33° C | 58% | 985.4 hPa | - | - | - | - |
| 1788251062 | 18.33° C | 58% | 985.5 hPa | - | - | - | - |
| 1788250164 | 18.33° C | 57% | 985.4 hPa | - | - | - | - |
| 1788249264 | 18.33° C | 57% | 985.4 hPa | - | - | - | - |
| 1788248364 | 18.89° C | 57% | 985.7 hPa | - | - | - | - |
| 1788247464 | 18.89° C | 58% | 985.8 hPa | - | - | - | - |
| 1788246564 | 18.89° C | 58% | 985.8 hPa | - | - | - | - |
* Rain since midnight (hover to see other rain measurements)
** Current wind speed in m/s (hover to see current wind gust speed)